Regional Weather Roundup
Issued by NWS

Home | Current Version | Previous Version | Graphics & Text | Print | Product List | Glossary On
Versions: 1 2 3 4 5 6 7 8 9 10 11 12 13 14 15 16 17 18 19 20 21 22 23 24 25 26 27 28 29 30 31 32 33 34 35 36 37 38 39 40 41 42 43 44 45 46 47 48 49 50
000
ASUS43 KDMX 162307
RWRIA

WEATHER ROUNDUP FOR IOWA
NATIONAL WEATHER SERVICE DES MOINES IA
600 PM CDT TUE SEP 16 2014

NOTE: "FAIR" INDICATES FEW OR NO CLOUDS BELOW 12,000 FEET WITH NO
SIGNIFICANT WEATHER AND/OR OBSTRUCTIONS TO VISIBILITY.

* - THESE STATIONS ARE NOT NWS STATIONS...THUS NOT UNDER NWS
QUALITY CONTROL.  THEY ALSO DO NOT REPORT WEATHER SUCH
AS PRECIPITATION OR FOG.

IAZ001>003-012>014-020>022-031>034-043>046-170000-
   NORTHWEST IOWA

CITY           SKY/WX    TMP DP  RH WIND       PRES   REMARKS
CARROLL *      SUNNY     66  46  48 S7        30.05F
CHEROKEE *     SUNNY     66  46  48 S6        30.03F
DENISON *      SUNNY     66  48  52 VRB7      30.03F
LE MARS *      SUNNY     68  48  49 S9        30.02F
ORANGE CITY *  SUNNY     68  46  45 S8        30.02F
SHELDON *      SUNNY     66  50  55 S9G15     30.01F
SIOUX CITY     SUNNY     69  48  47 S8        30.02F
SPENCER        SUNNY     67  46  47 S8        30.04F
STORM LAKE *   SUNNY     64  52  63 S7        30.04F
$$

IAZ055>058-069>071-079>083-090>094-170000-
   SOUTHWEST IOWA

CITY           SKY/WX    TMP DP  RH WIND       PRES   REMARKS
ATLANTIC *     SUNNY     66  48  52 VRB7      30.04F
AUDUBON *      SUNNY     64  45  48 S5        30.06F
CLARINDA *     SUNNY     68  50  52 SE7       30.07F
COUNCIL BLFS * SUNNY     66  52  59 S7        30.03F
CRESTON *      SUNNY     64  50  59 S7        30.08S
HARLAN  *      SUNNY     66  50  55 S8        30.08F
LAMONI         SUNNY     65  49  56 SE6       30.08F
SHENANDOAH *   SUNNY     70  48  46 S7        30.05F
$$

IAZ047>049-059>061-072>074-084-170000-
   CENTRAL IOWA

CITY           SKY/WX    TMP DP  RH WIND       PRES   REMARKS
AMES           SUNNY     64  47  53 S6        30.07F
ANKENY *       SUNNY     64  48  55 SE6       30.07F
CHARITON *     SUNNY     66  50  55 SE6       30.08F
DES MOINES     SUNNY     67  47  48 S6        30.07F
GRINNELL*      SUNNY     64  45  48 S6        30.09F
KNOXVILLE *    SUNNY     64  48  55 S6        30.07F
MARSHALLTOWN   SUNNY     64  44  48 S5        30.07F
PELLA *        SUNNY     66  48  52 S6        30.09F
PERRY *          N/A     66  46  48 S6        30.06F
$$

IAZ004>006-015-016-023>025-035-036-170000-
   NORTH CENTRAL IOWA

CITY           SKY/WX    TMP DP  RH WIND       PRES   REMARKS
ALGONA *       SUNNY     66  45  45 S8        30.05F
CLARION *        N/A     66  43  42 SW7       30.06F
ESTHERVILLE    SUNNY     65  44  46 SW8       30.04F
FORT DODGE *   SUNNY     66  45  45 S5        30.06F
MASON CITY     SUNNY     65  44  46 S8        30.07F
FOREST CITY *  SUNNY     64  45  48 SW6       30.06S
IOWA FALLS *     N/A     66  43  42 S5        30.08F
$$

IAZ007>011-017>019-026>030-037>042-050>054-066-170000-
   NORTHEAST IOWA

CITY           SKY/WX    TMP DP  RH WIND       PRES   REMARKS
CEDAR RAPIDS   SUNNY     64  46  52 S3        30.09F
CHARLES CITY * SUNNY     66  43  42 SW7       30.08F
CLINTON *      SUNNY     64  43  45 W5        30.12F
DECORAH *      SUNNY     63  43  48 CALM      30.08S
DUBUQUE        SUNNY     62  43  49 W6        30.11S
MONTICELLO *   SUNNY     64  45  48 W5        30.09F
OELWEIN *      SUNNY     64  43  45 SW8       30.09F
WATERLOO       SUNNY     65  43  44 SW6       30.07F
$$

IAZ064-065-067-068-078-170000-
   EAST CENTRAL IOWA

CITY           SKY/WX    TMP DP  RH WIND       PRES   REMARKS
DAVENPORT      SUNNY     64  40  41 SW7       30.11S
IOWA CITY      SUNNY     65  46  50 SW5       30.10F
MT. PLEASANT * SUNNY     68  43  40 CALM      30.10F
MUSCATINE *    SUNNY     68  43  40 S7        30.10F
QUAD CITIES    SUNNY     67  42  40 CALM      30.10F
$$

IAZ062-063-075>077-085>089-095>099-170000-
   SOUTHEAST IOWA

CITY           SKY/WX    TMP DP  RH WIND       PRES   REMARKS
BURLINGTON     SUNNY     67  46  47 CALM      30.09F
FAIRFIELD *    SUNNY     64  43  45 SW5       30.10F
FORT MADISON * SUNNY     66  45  45 CALM      30.10F
KEOKUK *       SUNNY     66  48  52 CALM      30.09F
OSKALOOSA *      N/A     64  50  59 S3        30.09F
CENTERVILLE *  SUNNY     64  48  55 SE3       30.10F
OTTUMWA        SUNNY     64  46  52 S5        30.08F
WASHINGTON *   SUNNY     66  46  48 CALM      30.09F
$$

ABBREVIATIONS USED IN REMARKS
   TC - TEMPERATURES IN CELSIUS
  WCI - WIND CHILL INDEX
   HX - HEAT INDEX
  VSB - VISIBILITY
$$



USA.gov is the U.S. government's official web portal to all federal, state and local government web resources and services.